276  
ASUS46 KPQR 240710  
RWROR  
 
OREGON REGIONAL WEATHER ROUNDUP  
NATIONAL WEATHER SERVICE PORTLAND OR  
1200 AM PDT SUN MAR 24 2019  
 
NOTE: "FAIR" INDICATES FEW OR NO CLOUDS BELOW 12,000 FEET WITH  
NO SIGNIFICANT WEATHER AND/OR S TO VISIBILITY
.  
 
ORZ001>013-240800-  
NORTHWEST OREGON  
 
 
CITY SKY/WX TMP DP RH WIND PRES REMARKS
 
ASTORIA CLOUDY 42 42 100 S5 30.23R  
TILLAMOOK FOG 41 41 100 CALM 30.25S VSB 3/4  
NEWPORT FAIR 41 41 100 E3 30.26F  
PORTLAND CLOUDY 49 41 74 SW3 30.21S  
VANCOUVER WA MOCLDY 48 41 76 CALM 30.21S  
SCAPPOOSE FAIR 42 39 89 CALM 30.21R  
HILLSBORO MOCLDY 42 40 92 CALM 30.21S  
AURORA FAIR 45 42 89 S3 30.23R  
MCMINNVILLE MOCLDY 40 39 97 CALM 30.22R  
SALEM MOCLDY 44 40 85 SE5 30.22R  
CORVALLIS CLOUDY 42 42 100 W5 30.24F  
EUGENE MOCLDY 44 41 89 S6 30.24S  

 
 
ORZ021-028-240800-  
SOUTHWEST OREGON  
 
 
CITY SKY/WX TMP DP RH WIND PRES REMARKS
 
NORTH BEND FAIR 42 42 100 SE6 30.25F  
BROOKINGS FAIR 43 42 97 CALM 30.23F  
ROSEBURG FAIR 44 41 89 CALM 30.24S  
SEXTON SUMMIT FAIR 34 32 92 SE3 30.16F  
GRANTS PASS MOCLDY 39 37 93 CALM 30.25S  
MEDFORD CLOUDY 40 37 89 CALM 30.24R  

 
 
ORZ014>016-041-240800-  
COLUMBIA GORGE  
 
 
CITY SKY/WX TMP DP RH WIND PRES REMARKS
 
TROUTDALE CLOUDY 51 42 71 W5 30.21R  
HOOD RIVER FAIR 46 37 71 CALM 30.16S  
THE DALLES CLOUDY 51 39 63 NW13 30.13R  

 
 
ORZ029>031-041-044-049-050-061>064-502-503-505>511-240800-  
EASTERN OREGON  
 
 
CITY SKY/WX TMP DP RH WIND PRES REMARKS
 
MADRAS FAIR 37 34 87 CALM 30.15S  
REDMOND CLOUDY 41 32 70 W3 30.12S  
BEND FAIR 36 30 80 CALM 30.12F  
PRINEVILLE CLOUDY 39 36 87 CALM 30.12S  
KLAMATH FALLS FAIR 26 24 92 CALM 30.16R  
LAKEVIEW CLOUDY 32 30 93 S5 30.13R  
HERMISTON LGT RAIN 49 43 80 SW12 30.08S  
PENDLETON LGT RAIN 45 42 89 S7 30.08S  
JOHN DAY LGT SNOW 35 34 98 W10 30.08S WCI 27  
MEACHAM LGT RAIN 34 32 92 CALM 30.05S FOG  
LA GRANDE LGT RAIN 41 37 86 NW15 30.04S  
BAKER CITY LGT RAIN 40 40 100 W5 30.03S  
BURNS MIX PCPN 36 32 85 W14 30.04S WCI 27  
ROME N/A 39 34 82 S12 30.01S WCI 32  
ONTARIO LGT RAIN 49 46 90 N5 30.01S  

 
 
 
CLICK HERE TO GO TO PREVIOUS BULLETINS.

The Nexlab OR Page Main Text Page